FW8269 Weather Reports


Display with metric or nautical units.
time (UTC)temp
F
wind
direction
speed
MPH
gust
MPH
rain 1hr
in
rain 24hr
in
rain mn
in
humidity
%
barometer
mb
20260507171547 84 139 12.0 17.0 0.00 0.00 0.00 79 1015.8
20260507170041 84 115 10.0 15.0 0.00 0.00 0.00 79 1015.9
20260507164553 85 127 10.0 16.0 0.00 0.00 0.00 80 1016.2
20260507163048 85 110 11.0 17.0 0.00 0.00 0.00 79 1016.3
20260507161600 85 111 12.0 18.0 0.00 0.00 0.00 78 1016.4
20260507160041 85 103 11.0 16.0 0.00 0.00 0.00 79 1016.6
20260507154542 84 108 13.0 17.0 0.00 0.00 0.00 80 1016.6
20260507153041 84 120 14.0 18.0 0.00 0.00 0.00 80 1016.9
20260507151547 84 114 12.0 17.0 0.00 0.00 0.00 80 1016.8
20260507150047 85 115 11.0 17.0 0.00 0.00 0.00 79 1016.9
20260507144546 85 105 10.0 15.0 0.00 0.00 0.00 79 1017.2
20260507143048 84 108 13.0 17.0 0.00 0.00 0.00 81 1017.1
20260507141602 84 115 10.0 17.0 0.00 0.00 0.00 79 1017.2
20260507140054 84 95 11.0 17.0 0.00 0.00 0.00 80 1017.0
20260507134540 84 111 10.0 17.0 0.00 0.00 0.00 79 1017.0
20260507133037 83 95 10.0 16.0 0.00 0.00 0.00 81 1016.9
20260507131540 83 110 10.0 17.0 0.00 0.00 0.00 82 1016.8
20260507130046 82 92 13.0 17.0 0.00 0.00 0.00 81 1016.8
20260507124557 82 63 8.0 12.0 0.00 0.00 0.00 82 1016.7
20260507123042 82 74 9.0 17.0 0.00 0.00 0.00 81 1016.5
20260507121542 81 63 6.0 13.0 0.00 0.00 0.00 81 1016.3
20260507120043 80 61 8.0 11.0 0.00 0.00 0.00 82 1016.0
20260507114544 79 68 5.0 8.0 0.00 0.00 0.00 83 1016.1
20260507113047 78 0 0.0 0.0 0.00 0.00 0.00 83 1016.0
20260507111539 78 0 0.0 0.0 0.00 0.00 0.00 83 1015.9
20260507110039 77 0 0.0 0.0 0.00 0.00 0.00 85 1015.8
20260507104540 77 0 0.0 0.0 0.00 0.00 0.00 85 1015.5
20260507103044 76 0 0.0 0.0 0.00 0.00 0.00 85 1015.5
20260507101542 75 0 0.0 0.0 0.00 0.00 0.00 86 1015.3
20260507100042 75 0 0.0 0.0 0.00 0.00 0.00 86 1015.1
20260507094539 76 0 0.0 0.0 0.00 0.00 0.00 85 1015.3
20260507093047 76 0 0.0 0.0 0.00 0.00 0.00 85 1015.3
20260507091546 76 0 0.0 0.0 0.00 0.00 0.00 84 1015.2
20260507090045 76 0 0.0 0.0 0.00 0.00 0.00 85 1015.3
20260507084539 76 0 0.0 0.0 0.00 0.00 0.00 85 1015.3
20260507083039 76 0 0.0 0.0 0.00 0.00 0.00 84 1015.4
20260507081544 76 0 0.0 0.0 0.00 0.00 0.00 84 1015.1
20260507080043 76 0 0.0 0.0 0.00 0.00 0.00 84 1015.1
20260507074541 76 0 0.0 0.0 0.00 0.00 0.00 84 1015.3
20260507073046 76 0 0.0 0.0 0.00 0.00 0.00 84 1015.2
20260507071539 76 0 0.0 0.0 0.00 0.00 0.00 85 1015.5
20260507070042 76 0 0.0 0.0 0.00 0.00 0.00 85 1015.5
20260507064554 76 0 0.0 0.0 0.00 0.00 0.00 85 1015.7
20260507063047 77 0 0.0 0.0 0.00 0.00 0.00 85 1015.9
20260507061541 77 0 0.0 0.0 0.00 0.00 0.00 84 1016.1
20260507060039 77 0 0.0 0.0 0.00 0.00 0.00 84 1016.2
20260507054539 77 0 0.0 0.0 0.00 0.00 0.00 84 1016.3
20260507053045 77 0 0.0 0.0 0.00 0.00 0.00 84 1016.5
20260507051540 78 0 0.0 0.0 0.00 0.00 0.00 85 1016.7
20260507050041 77 0 0.0 0.0 0.00 0.00 0.00 85 1017.1
20260507044540 77 0 0.0 0.0 0.00 0.00 0.00 85 1017.2
20260507043041 78 0 0.0 0.0 0.00 0.00 0.00 84 1017.4
20260507041545 78 0 0.0 0.0 0.00 0.00 0.00 84 1017.4
20260507040043 78 6 0.0 3.0 0.00 0.00 0.00 84 1017.4
20260507034544 79 0 0.0 4.0 0.00 0.00 0.00 85 1017.6
20260507033057 79 27 3.0 5.0 0.00 0.00 0.00 85 1017.6
20260507031539 79 42 4.0 5.0 0.00 0.00 0.00 85 1017.8
20260507030040 79 358 4.0 6.0 0.00 0.00 0.00 84 1017.9
20260507024553 79 26 2.0 6.0 0.00 0.00 0.00 85 1017.7
20260507023040 79 44 4.0 6.0 0.00 0.00 0.00 86 1017.6
20260507021540 79 44 4.0 6.0 0.00 0.00 0.00 85 1017.5
20260507020039 80 88 4.0 7.0 0.00 0.00 0.00 84 1017.5
20260507014543 80 30 4.0 6.0 0.00 0.00 0.00 84 1017.5
20260507013041 81 55 4.0 8.0 0.00 0.00 0.00 83 1017.4
20260507011540 81 37 5.0 7.0 0.00 0.00 0.00 84 1017.3
20260507010043 81 65 3.0 6.0 0.00 0.00 0.00 84 1017.3
20260507004542 81 60 3.0 6.0 0.00 0.00 0.00 84 1017.2
20260507003038 81 37 3.0 7.0 0.00 0.00 0.00 85 1017.0
20260507001603 81 69 2.0 5.0 0.00 0.00 0.00 84 1016.9
20260507000043 81 63 3.0 8.0 0.00 0.00 0.00 84 1016.7
20260506234552 81 79 5.0 8.0 0.00 0.00 0.00 83 1016.4
20260506233039 82 79 4.0 9.0 0.00 0.00 0.00 83 1016.4
20260506231545 82 91 5.0 10.0 0.00 0.00 0.00 83 1016.2
20260506230048 82 99 8.0 12.0 0.00 0.00 0.00 83 1016.1
20260506224557 82 106 7.0 11.0 0.00 0.00 0.00 82 1016.0
20260506223048 82 82 7.0 11.0 0.00 0.00 0.00 83 1016.1
20260506221542 82 106 8.0 13.0 0.00 0.00 0.00 81 1015.7
20260506220048 83 101 7.0 14.0 0.00 0.00 0.00 81 1015.7
20260506214539 84 94 7.0 12.0 0.00 0.00 0.00 81 1015.7
20260506213038 83 108 8.0 13.0 0.00 0.00 0.00 82 1015.7
20260506211552 84 110 9.0 14.0 0.00 0.00 0.00 81 1015.7
20260506210043 84 105 10.0 15.0 0.00 0.00 0.00 80 1015.6
20260506204542 84 118 9.0 15.0 0.00 0.00 0.00 80 1015.6
20260506203041 84 111 10.0 16.0 0.00 0.00 0.00 81 1015.4
20260506201548 84 103 10.0 16.0 0.00 0.00 0.00 79 1015.5
20260506200039 84 102 10.0 15.0 0.00 0.00 0.00 80 1015.6
20260506194544 84 122 11.0 15.0 0.00 0.00 0.00 78 1015.7
20260506193045 85 117 11.0 16.0 0.00 0.00 0.00 77 1015.8
20260506191539 85 129 10.0 15.0 0.00 0.00 0.00 78 1015.8
20260506190039 85 106 11.0 16.0 0.00 0.00 0.00 78 1015.8
20260506184543 85 120 11.0 17.0 0.00 0.00 0.00 78 1016.0
20260506183042 85 115 10.0 15.0 0.00 0.00 0.00 77 1016.2
20260506181554 85 102 11.0 17.0 0.00 0.00 0.00 79 1016.2
20260506180049 85 122 12.0 17.0 0.00 0.00 0.00 79 1016.4
20260506174542 85 110 13.0 18.0 0.00 0.00 0.00 80 1016.7
20260506173105 85 101 12.0 19.0 0.00 0.00 0.00 79 1017.0